TimeEDT,TemperatureF,Dew PointF,Humidity,Sea Level PressureIn,VisibilityMPH,Wind Direction,Wind SpeedMPH,Gust SpeedMPH,PrecipitationIn,Events,Conditions,WindDirDegrees,DateUTC
12:53 AM,30.9,28.0,89,29.99,10.0,NNW,5.8,-,N/A,,Overcast,330,2013-03-17 04:53:00
1:53 AM,30.9,27.0,85,30.01,8.0,NW,6.9,-,N/A,,Overcast,320,2013-03-17 05:53:00
2:41 AM,30.2,26.6,86,29.98,10.0,NW,8.1,-,N/A,,Overcast,320,2013-03-17 06:41:00
2:53 AM,30.0,26.1,85,30.04,10.0,NW,6.9,-,N/A,,Overcast,320,2013-03-17 06:53:00
3:29 AM,30.2,24.8,80,29.99,10.0,NNW,8.1,-,N/A,,Overcast,330,2013-03-17 07:29:00
3:53 AM,30.0,26.1,85,30.04,10.0,NNW,5.8,-,N/A,,Overcast,340,2013-03-17 07:53:00
4:53 AM,28.0,24.1,85,30.06,10.0,NNW,9.2,-,N/A,,Overcast,330,2013-03-17 08:53:00
5:06 AM,28.4,23.0,80,30.01,10.0,NNW,6.9,-,N/A,,Overcast,340,2013-03-17 09:06:00
5:53 AM,28.0,21.9,78,30.09,10.0,North,8.1,-,N/A,,Overcast,360,2013-03-17 09:53:00
6:53 AM,28.0,21.9,78,30.11,10.0,North,3.5,-,N/A,,Overcast,350,2013-03-17 10:53:00
7:49 AM,28.4,21.2,74,30.08,10.0,Calm,Calm,-,N/A,,Overcast,0,2013-03-17 11:49:00
7:53 AM,28.0,21.9,78,30.13,10.0,Calm,Calm,-,N/A,,Overcast,0,2013-03-17 11:53:00
8:53 AM,28.9,21.0,72,30.17,10.0,Calm,Calm,-,N/A,,Overcast,0,2013-03-17 12:53:00
9:08 AM,28.4,21.2,74,30.12,10.0,East,3.5,-,N/A,,Overcast,80,2013-03-17 13:08:00
9:53 AM,28.9,21.0,72,30.18,10.0,Calm,Calm,-,N/A,,Overcast,0,2013-03-17 13:53:00
10:53 AM,30.0,21.0,69,30.20,10.0,Calm,Calm,-,N/A,,Overcast,0,2013-03-17 14:53:00
11:53 AM,32.0,21.0,64,30.20,10.0,Calm,Calm,-,N/A,,Overcast,0,2013-03-17 15:53:00
12:17 PM,33.8,19.4,56,30.15,10.0,NNW,4.6,-,N/A,,Overcast,340,2013-03-17 16:17:00
12:30 PM,33.8,19.4,56,30.15,10.0,NNW,4.6,-,N/A,,Overcast,340,2013-03-17 16:30:00
12:53 PM,33.1,19.9,59,30.20,10.0,Calm,Calm,-,N/A,,Overcast,0,2013-03-17 16:53:00
1:53 PM,33.1,19.9,59,30.19,10.0,NW,5.8,-,N/A,,Mostly Cloudy,320,2013-03-17 17:53:00
2:53 PM,34.0,19.9,56,30.18,10.0,Calm,Calm,-,N/A,,Overcast,0,2013-03-17 18:53:00
3:53 PM,35.1,21.0,57,30.18,10.0,Variable,4.6,-,N/A,,Overcast,0,2013-03-17 19:53:00
4:53 PM,36.0,21.9,57,30.18,10.0,Variable,4.6,-,N/A,,Mostly Cloudy,0,2013-03-17 20:53:00
5:53 PM,35.1,21.9,59,30.19,10.0,Variable,5.8,-,N/A,,Mostly Cloudy,0,2013-03-17 21:53:00
6:53 PM,34.0,21.9,61,30.20,10.0,Variable,4.6,-,N/A,,Clear,0,2013-03-17 22:53:00
7:53 PM,33.1,21.9,64,30.21,10.0,NNE,4.6,-,N/A,,Clear,30,2013-03-17 23:53:00
8:53 PM,30.9,23.0,72,30.22,10.0,NNE,4.6,-,N/A,,Clear,20,2013-03-18 00:53:00
9:53 PM,30.0,23.0,75,30.22,10.0,NE,5.8,-,N/A,,Clear,50,2013-03-18 01:53:00
10:53 PM,30.0,21.9,72,30.21,10.0,NE,5.8,-,N/A,,Clear,50,2013-03-18 02:53:00
11:53 PM,28.9,21.0,72,30.19,10.0,Variable,4.6,-,N/A,,Clear,0,2013-03-18 03:53:00